| time (UTC) | temp F | wind direction | speed MPH | gust MPH | rain 1hr in | rain 24hr in | rain mn in | humidity % | barometer mb |
| 20260505010029 | 83 | 285 | 1.0 | 6.0 | 0.00 | 0.00 | 0.00 | 23 | 1019.5 |
| 20260505005529 | 83 | 276 | 2.0 | 5.0 | 0.00 | 0.00 | 0.00 | 23 | 1019.4 |
| 20260505005030 | 83 | 268 | 1.0 | 5.0 | 0.00 | 0.00 | 0.00 | 22 | 1019.5 |
| 20260505004526 | 82 | 254 | 1.0 | 6.0 | 0.00 | 0.00 | 0.00 | 23 | 1019.5 |
| 20260505004041 | 82 | 285 | 2.0 | 7.0 | 0.00 | 0.00 | 0.00 | 23 | 1019.4 |
| 20260505003531 | 82 | 265 | 2.0 | 7.0 | 0.00 | 0.00 | 0.00 | 23 | 1019.5 |
| 20260505003025 | 82 | 310 | 1.0 | 4.0 | 0.00 | 0.00 | 0.00 | 22 | 1019.4 |
| 20260505002528 | 82 | 264 | 1.0 | 4.0 | 0.00 | 0.00 | 0.00 | 23 | 1019.5 |
| 20260505002026 | 83 | 265 | 1.0 | 7.0 | 0.00 | 0.00 | 0.00 | 23 | 1019.6 |
| 20260505001528 | 83 | 262 | 2.0 | 7.0 | 0.00 | 0.00 | 0.00 | 23 | 1019.5 |
| 20260505001026 | 83 | 262 | 2.0 | 7.0 | 0.00 | 0.00 | 0.00 | 23 | 1019.4 |
| 20260505000527 | 84 | 290 | 2.0 | 7.0 | 0.00 | 0.00 | 0.00 | 22 | 1019.5 |
| 20260505000028 | 84 | 49 | 3.0 | 7.0 | 0.00 | 0.00 | 0.00 | 22 | 1019.5 |
| 20260504235755 | 84 | 259 | 4.0 | 7.0 | 0.00 | 0.00 | 0.00 | 22 | 1019.5 |
| 20260504235031 | 86 | 296 | 2.0 | 5.0 | 0.00 | 0.00 | 0.00 | 21 | 1019.5 |
| 20260504234526 | 85 | 268 | 1.0 | 5.0 | 0.00 | 0.00 | 0.00 | 22 | 1019.5 |
| 20260504234030 | 84 | 276 | 1.0 | 6.0 | 0.00 | 0.00 | 0.00 | 24 | 1019.5 |
| 20260504233525 | 84 | 306 | 2.0 | 11.0 | 0.00 | 0.00 | 0.00 | 22 | 1019.6 |
| 20260504233026 | 84 | 292 | 3.0 | 11.0 | 0.00 | 0.00 | 0.00 | 21 | 1019.5 |
| 20260504232530 | 85 | 283 | 2.0 | 7.0 | 0.00 | 0.00 | 0.00 | 21 | 1019.6 |
| 20260504232258 | 85 | 333 | 3.0 | 7.0 | 0.00 | 0.00 | 0.00 | 21 | 1019.5 |
| 20260504231525 | 84 | 306 | 4.0 | 7.0 | 0.00 | 0.00 | 0.00 | 22 | 1019.5 |
| 20260504231025 | 84 | 329 | 0.0 | 6.0 | 0.00 | 0.00 | 0.00 | 22 | 1019.6 |
| 20260504230536 | 83 | 302 | 2.0 | 6.0 | 0.00 | 0.00 | 0.00 | 23 | 1019.8 |
| 20260504230025 | 83 | 285 | 0.0 | 9.0 | 0.00 | 0.00 | 0.00 | 22 | 1019.8 |
| 20260504225528 | 84 | 282 | 0.0 | 9.0 | 0.00 | 0.00 | 0.00 | 23 | 1019.8 |
| 20260504225255 | 85 | 278 | 2.0 | 7.0 | 0.00 | 0.00 | 0.00 | 21 | 1019.9 |
| 20260504224748 | 85 | 0 | 2.0 | 7.0 | 0.00 | 0.00 | 0.00 | 21 | 1019.9 |
| 20260504224023 | 85 | 264 | 2.0 | 10.0 | 0.00 | 0.00 | 0.00 | 21 | 1019.9 |
| 20260504223524 | 85 | 257 | 2.0 | 10.0 | 0.00 | 0.00 | 0.00 | 20 | 1019.9 |
| 20260504223024 | 85 | 4 | 2.0 | 11.0 | 0.00 | 0.00 | 0.00 | 21 | 1019.9 |
| 20260504222523 | 85 | 281 | 6.0 | 11.0 | 0.00 | 0.00 | 0.00 | 19 | 1020.0 |
| 20260504222024 | 86 | 320 | 2.0 | 12.0 | 0.00 | 0.00 | 0.00 | 23 | 1020.0 |
| 20260504221523 | 85 | 300 | 0.0 | 12.0 | 0.00 | 0.00 | 0.00 | 22 | 1019.9 |
| 20260504221024 | 86 | 266 | 2.0 | 7.0 | 0.00 | 0.00 | 0.00 | 20 | 1020.0 |
| 20260504220523 | 85 | 281 | 1.0 | 7.0 | 0.00 | 0.00 | 0.00 | 22 | 1020.0 |
| 20260504220024 | 84 | 279 | 4.0 | 7.0 | 0.00 | 0.00 | 0.00 | 20 | 1020.1 |
| 20260504215751 | 84 | 307 | 2.0 | 7.0 | 0.00 | 0.00 | 0.00 | 21 | 1020.2 |
| 20260504215022 | 84 | 285 | 3.0 | 12.0 | 0.00 | 0.00 | 0.00 | 21 | 1020.3 |
| 20260504214523 | 84 | 279 | 3.0 | 12.0 | 0.00 | 0.00 | 0.00 | 22 | 1020.3 |
| 20260504214021 | 84 | 54 | 3.0 | 9.0 | 0.00 | 0.00 | 0.00 | 20 | 1020.4 |
| 20260504213523 | 84 | 52 | 1.0 | 10.0 | 0.00 | 0.00 | 0.00 | 23 | 1020.4 |
| 20260504213024 | 84 | 275 | 5.0 | 10.0 | 0.00 | 0.00 | 0.00 | 20 | 1020.4 |
| 20260504212523 | 83 | 268 | 3.0 | 11.0 | 0.00 | 0.00 | 0.00 | 21 | 1020.4 |
| 20260504212021 | 83 | 269 | 5.0 | 11.0 | 0.00 | 0.00 | 0.00 | 21 | 1020.5 |
| 20260504211523 | 83 | 262 | 6.0 | 13.0 | 0.00 | 0.00 | 0.00 | 20 | 1020.5 |
| 20260504211021 | 83 | 258 | 3.0 | 13.0 | 0.00 | 0.00 | 0.00 | 20 | 1020.4 |
| 20260504210521 | 84 | 255 | 3.0 | 6.0 | 0.00 | 0.00 | 0.00 | 22 | 1020.5 |
| 20260504210245 | 83 | 348 | 1.0 | 13.0 | 0.00 | 0.00 | 0.00 | 22 | 1020.5 |
| 20260504205752 | 83 | 319 | 2.0 | 13.0 | 0.00 | 0.00 | 0.00 | 21 | 1020.6 |
| 20260504205023 | 83 | 317 | 7.0 | 12.0 | 0.00 | 0.00 | 0.00 | 21 | 1020.5 |
| 20260504204750 | 83 | 317 | 4.0 | 11.0 | 0.00 | 0.00 | 0.00 | 21 | 1020.6 |
| 20260504204022 | 83 | 286 | 3.0 | 11.0 | 0.00 | 0.00 | 0.00 | 22 | 1020.7 |
| 20260504203522 | 82 | 336 | 6.0 | 11.0 | 0.00 | 0.00 | 0.00 | 21 | 1020.7 |
| 20260504203020 | 82 | 303 | 4.0 | 11.0 | 0.00 | 0.00 | 0.00 | 22 | 1020.7 |
| 20260504202521 | 82 | 282 | 5.0 | 11.0 | 0.00 | 0.00 | 0.00 | 21 | 1020.7 |
| 20260504202021 | 82 | 295 | 5.0 | 11.0 | 0.00 | 0.00 | 0.00 | 21 | 1020.8 |
| 20260504201521 | 82 | 276 | 6.0 | 13.0 | 0.00 | 0.00 | 0.00 | 21 | 1020.9 |
| 20260504201019 | 81 | 320 | 4.0 | 13.0 | 0.00 | 0.00 | 0.00 | 23 | 1020.9 |
| 20260504200521 | 81 | 300 | 6.0 | 11.0 | 0.00 | 0.00 | 0.00 | 21 | 1020.9 |
| 20260504200020 | 81 | 155 | 5.0 | 13.0 | 0.00 | 0.00 | 0.00 | 22 | 1021.0 |
| 20260504195522 | 81 | 262 | 6.0 | 13.0 | 0.00 | 0.00 | 0.00 | 22 | 1021.0 |
| 20260504195020 | 81 | 269 | 4.0 | 13.0 | 0.00 | 0.00 | 0.00 | 22 | 1021.0 |
| 20260504194519 | 82 | 265 | 7.0 | 13.0 | 0.00 | 0.00 | 0.00 | 20 | 1021.0 |
| 20260504194020 | 81 | 300 | 2.0 | 13.0 | 0.00 | 0.00 | 0.00 | 22 | 1021.0 |
| 20260504193746 | 81 | 240 | 8.0 | 13.0 | 0.00 | 0.00 | 0.00 | 22 | 1021.1 |
| 20260504193243 | 81 | 285 | 6.0 | 13.0 | 0.00 | 0.00 | 0.00 | 23 | 1021.0 |
| 20260504192520 | 81 | 269 | 4.0 | 10.0 | 0.00 | 0.00 | 0.00 | 24 | 1021.1 |
| 20260504192020 | 80 | 307 | 3.0 | 11.0 | 0.00 | 0.00 | 0.00 | 25 | 1021.4 |
| 20260504191520 | 80 | 288 | 6.0 | 11.0 | 0.00 | 0.00 | 0.00 | 23 | 1021.4 |
| 20260504191021 | 80 | 314 | 3.0 | 11.0 | 0.00 | 0.00 | 0.00 | 24 | 1021.5 |
| 20260504190518 | 80 | 264 | 5.0 | 10.0 | 0.00 | 0.00 | 0.00 | 24 | 1021.5 |
| 20260504190019 | 79 | 283 | 6.0 | 12.0 | 0.00 | 0.00 | 0.00 | 23 | 1021.7 |
| 20260504185519 | 79 | 303 | 8.0 | 12.0 | 0.00 | 0.00 | 0.00 | 23 | 1021.8 |
| 20260504185019 | 79 | 264 | 4.0 | 10.0 | 0.00 | 0.00 | 0.00 | 23 | 1021.7 |
| 20260504184737 | 79 | 269 | 6.0 | 11.0 | 0.00 | 0.00 | 0.00 | 23 | 1021.8 |
| 20260504184018 | 79 | 281 | 3.0 | 19.0 | 0.00 | 0.00 | 0.00 | 23 | 1021.9 |
| 20260504184008 | 78 | 258 | 9.0 | 19.0 | 0.00 | 0.00 | 0.00 | 23 | 1021.8 |
| 20260504183254 | 79 | 265 | 7.0 | 13.0 | 0.00 | 0.00 | 0.00 | 23 | 1021.9 |
| 20260504182520 | 79 | 295 | 4.0 | 13.0 | 0.00 | 0.00 | 0.00 | 25 | 1021.9 |
| 20260504182018 | 78 | 266 | 2.0 | 11.0 | 0.00 | 0.00 | 0.00 | 26 | 1022.0 |
| 20260504181519 | 78 | 289 | 6.0 | 11.0 | 0.00 | 0.00 | 0.00 | 24 | 1022.0 |
| 20260504181239 | 79 | 290 | 5.0 | 10.0 | 0.00 | 0.00 | 0.00 | 24 | 1022.0 |
| 20260504180514 | 79 | 290 | 2.0 | 9.0 | 0.00 | 0.00 | 0.00 | 24 | 1022.0 |
| 20260504180018 | 79 | 226 | 2.0 | 11.0 | 0.00 | 0.00 | 0.00 | 24 | 1022.0 |
| 20260504175518 | 78 | 271 | 4.0 | 11.0 | 0.00 | 0.00 | 0.00 | 25 | 1022.0 |
| 20260504175019 | 78 | 276 | 4.0 | 12.0 | 0.00 | 0.00 | 0.00 | 25 | 1022.0 |
| 20260504174518 | 78 | 275 | 5.0 | 12.0 | 0.00 | 0.00 | 0.00 | 25 | 1022.1 |
| 20260504174459 | 78 | 290 | 6.0 | 12.0 | 0.00 | 0.00 | 0.00 | 25 | 1022.1 |
| 20260504173517 | 77 | 279 | 3.0 | 12.0 | 0.00 | 0.00 | 0.00 | 26 | 1022.1 |
| 20260504173017 | 77 | 324 | 5.0 | 12.0 | 0.00 | 0.00 | 0.00 | 26 | 1022.1 |
| 20260504172518 | 77 | 265 | 6.0 | 11.0 | 0.00 | 0.00 | 0.00 | 25 | 1022.3 |
| 20260504172016 | 77 | 271 | 1.0 | 10.0 | 0.00 | 0.00 | 0.00 | 27 | 1022.3 |
| 20260504171518 | 76 | 275 | 0.0 | 7.0 | 0.00 | 0.00 | 0.00 | 30 | 1022.3 |
| 20260504171016 | 75 | 243 | 1.0 | 5.0 | 0.00 | 0.00 | 0.00 | 34 | 1022.5 |
| 20260504170745 | 74 | 309 | 1.0 | 4.0 | 0.00 | 0.00 | 0.00 | 32 | 1022.4 |
| 20260504151011 | 59 | 56 | 0.0 | 2.0 | 0.00 | 0.00 | 0.00 | 52 | 1023.9 |
| 20260504150513 | 59 | 76 | 1.0 | 2.0 | 0.00 | 0.00 | 0.00 | 54 | 1024.0 |
| 20260504141012 | 47 | 66 | 0.0 | 0.0 | 0.00 | 0.00 | 0.00 | 74 | 1023.9 |
| 20260504140512 | 47 | 66 | 0.0 | 0.0 | 0.00 | 0.00 | 0.00 | 75 | 1024.0 |
| 20260504130511 | 42 | 155 | 0.0 | 1.0 | 0.00 | 0.00 | 0.00 | 78 | 1023.8 |
| 20260504120237 | 44 | 128 | 0.0 | 1.0 | 0.00 | 0.00 | 0.00 | 73 | 1023.6 |
| 20260504110509 | 47 | 154 | 0.0 | 0.0 | 0.00 | 0.00 | 0.00 | 70 | 1023.5 |
| 20260504100508 | 48 | 142 | 0.0 | 0.0 | 0.00 | 0.00 | 0.00 | 66 | 1023.6 |
| 20260504082004 | 53 | 200 | 2.0 | 2.0 | 0.00 | 0.00 | 0.00 | 56 | 1023.3 |
| 20260504081505 | 53 | 200 | 0.0 | 3.0 | 0.00 | 0.00 | 0.00 | 55 | 1023.2 |
| 20260504081004 | 54 | 216 | 1.0 | 3.0 | 0.00 | 0.00 | 0.00 | 55 | 1023.2 |
| 20260504080948 | 54 | 213 | 2.0 | 3.0 | 0.00 | 0.00 | 0.00 | 55 | 1023.2 |
| 20260504050500 | 62 | 209 | 1.0 | 4.0 | 0.00 | 0.00 | 0.00 | 42 | 1022.6 |
| 20260504050001 | 62 | 137 | 2.0 | 4.0 | 0.00 | 0.00 | 0.00 | 42 | 1022.5 |
| 20260504045459 | 62 | 157 | 0.0 | 5.0 | 0.00 | 0.00 | 0.00 | 42 | 1022.4 |
| 20260504045001 | 62 | 289 | 3.0 | 5.0 | 0.00 | 0.00 | 0.00 | 43 | 1022.4 |
| 20260504044500 | 62 | 104 | 0.0 | 2.0 | 0.00 | 0.00 | 0.00 | 39 | 1022.3 |
| 20260504044000 | 63 | 244 | 0.0 | 2.0 | 0.00 | 0.00 | 0.00 | 39 | 1022.2 |
| 20260504043500 | 63 | 248 | 1.0 | 2.0 | 0.00 | 0.00 | 0.00 | 38 | 1022.2 |
| 20260504043000 | 63 | 234 | 1.0 | 3.0 | 0.00 | 0.00 | 0.00 | 39 | 1022.2 |
| 20260504042943 | 62 | 285 | 2.0 | 3.0 | 0.00 | 0.00 | 0.00 | 40 | 1022.1 |
| 20260504041959 | 62 | 221 | 1.0 | 2.0 | 0.00 | 0.00 | 0.00 | 41 | 1022.1 |
| 20260504041501 | 63 | 241 | 0.0 | 2.0 | 0.00 | 0.00 | 0.00 | 39 | 1022.1 |
| 20260504041000 | 62 | 238 | 1.0 | 2.0 | 0.00 | 0.00 | 0.00 | 40 | 1021.9 |
| 20260504040500 | 62 | 233 | 0.0 | 1.0 | 0.00 | 0.00 | 0.00 | 40 | 1022.0 |
| 20260504040224 | 63 | 231 | 0.0 | 2.0 | 0.00 | 0.00 | 0.00 | 40 | 1022.0 |
| 20260504035726 | 63 | 231 | 0.0 | 2.0 | 0.00 | 0.00 | 0.00 | 41 | 1021.9 |
| 20260504034958 | 63 | 234 | 0.0 | 1.0 | 0.00 | 0.00 | 0.00 | 41 | 1021.9 |
| 20260504034459 | 63 | 234 | 0.0 | 1.0 | 0.00 | 0.00 | 0.00 | 41 | 1021.8 |
| 20260504033959 | 64 | 4 | 0.0 | 2.0 | 0.00 | 0.00 | 0.00 | 40 | 1021.7 |
| 20260504033458 | 65 | 4 | 0.0 | 2.0 | 0.00 | 0.00 | 0.00 | 38 | 1021.6 |
| 20260504033002 | 65 | 223 | 0.0 | 1.0 | 0.00 | 0.00 | 0.00 | 37 | 1021.6 |
| 20260504032724 | 65 | 226 | 0.0 | 1.0 | 0.00 | 0.00 | 0.00 | 37 | 1021.6 |
| 20260504032000 | 65 | 238 | 0.0 | 1.0 | 0.00 | 0.00 | 0.00 | 39 | 1021.5 |
| 20260504031457 | 66 | 234 | 0.0 | 1.0 | 0.00 | 0.00 | 0.00 | 39 | 1021.4 |
| 20260504031218 | 67 | 254 | 0.0 | 0.0 | 0.00 | 0.00 | 0.00 | 37 | 1021.3 |
| 20260504030502 | 67 | 254 | 0.0 | 1.0 | 0.00 | 0.00 | 0.00 | 35 | 1021.3 |
| 20260504025958 | 69 | 254 | 0.0 | 1.0 | 0.00 | 0.00 | 0.00 | 35 | 1021.3 |
| 20260504025457 | 69 | 298 | 0.0 | 1.0 | 0.00 | 0.00 | 0.00 | 33 | 1021.1 |
| 20260504025217 | 70 | 271 | 0.0 | 1.0 | 0.00 | 0.00 | 0.00 | 32 | 1021.0 |
| 20260504024458 | 70 | 228 | 0.0 | 1.0 | 0.00 | 0.00 | 0.00 | 32 | 1021.0 |
| 20260504023958 | 71 | 228 | 1.0 | 1.0 | 0.00 | 0.00 | 0.00 | 32 | 1021.0 |
| 20260504023458 | 72 | 237 | 0.0 | 1.0 | 0.00 | 0.00 | 0.00 | 30 | 1021.0 |
| 20260504023214 | 74 | 237 | 1.0 | 2.0 | 0.00 | 0.00 | 0.00 | 29 | 1020.9 |
| 20260504022456 | 75 | 254 | 0.0 | 2.0 | 0.00 | 0.00 | 0.00 | 27 | 1020.9 |
| 20260504021957 | 77 | 254 | 0.0 | 2.0 | 0.00 | 0.00 | 0.00 | 27 | 1020.9 |
| 20260504021717 | 78 | 247 | 1.0 | 2.0 | 0.00 | 0.00 | 0.00 | 27 | 1021.0 |
| 20260504021219 | 79 | 254 | 0.0 | 2.0 | 0.00 | 0.00 | 0.00 | 26 | 1021.0 |
| 20260504020726 | 80 | 269 | 0.0 | 5.0 | 0.00 | 0.00 | 0.00 | 26 | 1021.1 |
| 20260504015958 | 81 | 275 | 1.0 | 6.0 | 0.00 | 0.00 | 0.00 | 23 | 1021.1 |
| 20260504015456 | 82 | 289 | 4.0 | 6.0 | 0.00 | 0.00 | 0.00 | 20 | 1021.1 |
| 20260504014958 | 82 | 241 | 3.0 | 5.0 | 0.00 | 0.00 | 0.00 | 20 | 1021.1 |
| 20260504014456 | 83 | 269 | 1.0 | 3.0 | 0.00 | 0.00 | 0.00 | 21 | 1021.1 |
| 20260504013955 | 83 | 285 | 1.0 | 9.0 | 0.00 | 0.00 | 0.00 | 21 | 1021.1 |
| 20260504013719 | 83 | 269 | 2.0 | 9.0 | 0.00 | 0.00 | 0.00 | 21 | 1021.1 |
| 20260504012955 | 84 | 276 | 1.0 | 5.0 | 0.00 | 0.00 | 0.00 | 19 | 1021.1 |
| 20260504012456 | 84 | 254 | 1.0 | 7.0 | 0.00 | 0.00 | 0.00 | 19 | 1021.1 |
| 20260504011955 | 84 | 282 | 1.0 | 7.0 | 0.00 | 0.00 | 0.00 | 19 | 1021.1 |
| 20260504011457 | 84 | 262 | 0.0 | 5.0 | 0.00 | 0.00 | 0.00 | 19 | 1021.3 |
| 20260504010955 | 85 | 285 | 2.0 | 5.0 | 0.00 | 0.00 | 0.00 | 19 | 1021.3 |
| 20260504010457 | 85 | 316 | 2.0 | 5.0 | 0.00 | 0.00 | 0.00 | 17 | 1021.3 |